Miscellaneous Local Product
Issued by NWS North Platte, NE

Home | Current Version | Previous Version | Graphics & Text | Print | Product List | Glossary On
Versions: 1 2 3 4 5 6 7 8 9 10 11 12 13 14 15 16 17 18 19 20 21 22 23 24 25 26 27 28 29 30 31 32 33 34 35 36 37 38 39 40 41 42 43 44 45 46 47 48 49 50
000
AXUS43 KLBF 222110
MISLBF


WESTERN AND NORTH CENTRAL NEBRASKA HOURLY WEATHER ROUNDUP
NATIONAL WEATHER SERVICE NORTH PLATTE NE
400 PM CDT SUN APR 22 2018

NOTE: "FAIR" INDICATES FEW OR NO CLOUDS BELOW 12,000 FEET WITH NO
SIGNIFICANT WEATHER AND/OR OBSTRUCTIONS TO VISIBILITY.

NOTE: STATIONS NOT REPORTING VARIABLES SUCH AS SKY/WEATHER OR
PRESSURE ARE PROVIDED BY RAWS AND APRS NETWORKS AND ARE NOT UNDER
NATIONAL WEATHER SERVICE QUALITY CONTROL.

...OBSERVATIONS IN AND NEAR THE EASTERN PANHANDLE OF NEBRASKA...

CITY           SKY/WX    TMP DP  RH WIND       PRES   REMARKS
PINE RIDGE     SUNNY     64  39  39 SW7       30.10F
GORDON         FAIR      59  37  43 SE6       30.11F
CHADRON        SUNNY     64  36  35 SE7       30.08F
ALLIANCE       MOSUNNY   59  39  47 SE6       30.11F
SIDNEY         SUNNY     57  29  34 VRB5      30.14F
CRESCENT LAKE    N/A     60  39  46 SE6         N/A
$$

...OBSERVATIONS IN NORTHERN NEBRASKA AND FAR SOUTHERN SOUTH DAKOTA...

CITY           SKY/WX    TMP DP  RH WIND       PRES   REMARKS
WINNER         FAIR      61  38  42 S15       30.17F
VALENTINE      PTSUNNY   60  37  42 SE14      30.15F
AINSWORTH      MOSUNNY   59  39  48 S12G17    30.17F
O`NEILL        SUNNY     64  29  27 S7        30.19F
THEDFORD       PTSUNNY   57  38  48 SE7       30.17F
BROKEN BOW     SUNNY     58  38  47 VRB5      30.18F
ORD            SUNNY     63  31  30 E6        30.16F
ALBION         MOSUNNY   65  34  31 SE7       30.17F
VALENTINE NWR    N/A     58  37  45 S8G16       N/A
HALSEY           N/A     56  37  48 SE8G15      N/A
BUTTE            N/A     60  32  35 SE6         N/A
CHAMBERS         N/A     64  37  36 W3          N/A
EWING            N/A     64  35  34 SE6         N/A
$$

...OBSERVATIONS IN SOUTHWEST NEBRASKA AND FAR NORTHEAST COLORADO...

CITY           SKY/WX    TMP DP  RH WIND       PRES   REMARKS
WRAY           MOCLDY    57  36  44 E9        30.17F
HOLYOKE        MOCLDY    55  37  50 CALM      30.18F
IMPERIAL       PTSUNNY   52  35  52 CALM      30.19F
OGALLALA       MOSUNNY   53  37  55 E3        30.18F
NORTH PLATTE   CLOUDY    56  39  53 W6        30.18F
MCCOOK         FAIR      59  39  47 MISG      30.17F
LEXINGTON      MOSUNNY   59  39  47 S5        30.18F
STAPLETON        N/A     56  40  56 CALM        N/A
GOTHENBURG       N/A     57  38  50 SE3         N/A
CALLAWAY         N/A     57  43  59 CALM        N/A
$$

...OBSERVATIONS IN CENTRAL LINCOLN COUNTY AREA...

CITY           SKY/WX    TMP DP  RH WIND       PRES   REMARKS
N.P. AIRPORT   CLOUDY    56  39  53 W6        30.18F
N.P. DOWNTOWN    N/A     57  40  54 CALM        N/A
N.P. HILLCREST   N/A     56  40  54 S3          N/A
$$

...OBSERVATIONS ACROSS THE ROCKIES AND WESTERN HIGH PLAINS...

CITY           SKY/WX    TMP DP  RH WIND       PRES   REMARKS
RAPID CITY     SUNNY     66  38  35 NE7       30.08F
SCOTTSBLUFF    SUNNY     61  42  49 VRB5      30.12F
CHEYENNE       SUNNY     61  26  26 VRB5      30.14F
DENVER         MOSUNNY   63  33  32 NE7       30.13F
BERTHOUD PASS  FAIR      28  18  64 NW10G16   30.39S WCI  19
MONARCH PASS   PTSUNNY   43  21  42 W9        30.47S
ASPEN          MOSUNNY   58  27  30 VRB3      30.18F
STEAMBOAT      FAIR      60  31  33 S3        30.15F
LARAMIE        SUNNY     58  29  33 VRB6      30.15F
CASPER         SUNNY     66  35  31 SW7       30.07F
$$

...OBSERVATIONS ACROSS THE NORTHERN PLAINS...

CITY           SKY/WX    TMP DP  RH WIND       PRES   REMARKS
BISMARCK       SUNNY     70  39  32 SW9G20    30.08F
FARGO          PTSUNNY   65  37  35 SW16G28   30.17F
PIERRE         SUNNY     63  39  41 S15       30.13F
SIOUX FALLS    MOSUNNY   62  35  36 E13G25    30.21F
$$

...OBSERVATIONS ACROSS THE CENTRAL AND SOUTHERN PLAINS...

CITY           SKY/WX    TMP DP  RH WIND       PRES   REMARKS
OMAHA          CLOUDY    70  31  23 E14       30.15F
GRAND ISLAND   SUNNY     65  36  34 E7        30.16F
KANSAS CITY    CLOUDY    64  42  44 NE10      30.08F
WICHITA        CLOUDY    56  44  64 N21G29    30.08F
DODGE CITY     PTSUNNY   59  40  49 NE14G22   30.14F
OKLAHOMA CITY  PTSUNNY   63  43  48 N22       30.03F
DALLAS         PTSUNNY   67  43  41 NW21G28   30.01F
AMARILLO       CLOUDY    57  39  51 N8        30.16F
$$




USA.gov is the U.S. government's official web portal to all federal, state and local government web resources and services.